Regional Weather Roundup
Issued by NWS

Home | Current Version | Previous Version | Text Only | Print | Product List | Glossary Off
Versions: 1 2 3 4 5 6 7 8 9 10 11 12 13 14 15 16 17 18 19 20 21 22 23 24 25 26 27 28 29 30 31 32 33 34 35 36 37 38 39 40 41 42 43 44 45 46 47 48 49 50

000
ASUS43 KLOT 050102
RWRIL

ILLINOIS REGIONAL WEATHER ROUNDUP
NATIONAL WEATHER SERVICE CHICAGO/ROMEOVILLE IL
800 PM CDT MON MAY 04 2015

NOTE: "FAIR" INDICATES FEW OR NO CLOUDS BELOW 12,000 FEET WITH NO
SIGNIFICANT WEATHER AND/OR OBSTRUCTIONS TO VISIBILITY.

* THESE STATIONS ARE NOT UNDER NWS QUALITY CONTROL. THEY ALSO MAY NOT
  REPORT WEATHER SUCH AS PRECIPITATION OR FOG.

ILZ001-002-007-009-015-016-024-050200-
NORTHWEST ILLINOIS

CITY           SKY/WX    TMP DP  RH WIND       PRES   REMARKS
MOLINE         TSTM      68  61  78 E13       30.07S
STERLING*      CLOUDY    68  61  77 E8        30.11S
$$

ILZ003-004-008-010-011-017-018-050200-
NORTH CENTRAL ILLINOIS

CITY           SKY/WX    TMP DP  RH WIND       PRES   REMARKS
ROCKFORD       MOCLDY    67  55  65 E10       30.14R
FREEPORT*      MOCLDY    66  59  77 E7        30.13S
$$

ILZ005-006-012>014-019>023-050200-
NORTHEAST ILLINOIS

CITY           SKY/WX    TMP DP  RH WIND       PRES   REMARKS
CHICAGO-OHARE  MOCLDY    57  47  69 NE8       30.17R
CHICAGO-MIDWAY MOCLDY    60  51  72 E10       30.17R
AURORA         PTCLDY    65  53  65 E14       30.14R
LANSING*       CLOUDY    61  52  73 N6        30.16R
WAUKEGAN       MOCLDY    49  39  68 CALM      30.18R
DUPAGE AIRPORT MOCLDY    62  48  60 E8        30.15R
WHEELING       MOCLDY    54  39  57 VRB5      30.19R
NORTHERLY ISL    N/A     50  46  86 N8          N/A
$$

LMZ740>746-050200-
SOUTHERN LAKE MICHIGAN

STATION/POSITION SKY/WX   TEMP    WIND        PRES    VSBY  WAVE
                          AIR SEA DIR/SP/G                  HT/PER
                          (F)     (DEG/KT/KT) (MB)    (MI)  (FT/S)
HARRISON CRIB              48     360/  2/  4   N/A
BURNHAM HARBOR             51     340/  5/  8   N/A
CALUMET HARBOR             51      10/  5/  6   N/A
BURNS HARBOR               55      70/ 10/ 12 1021.3R
MICHIGAN CITY              54      40/ 11/ 11   N/A
MICHIGAN CITY 6N           51 50  100/  6/  6   N/A           1
ST. JOSEPH                 50 49   20/  8/  8   N/A           1
$$

ILZ025>027-034>036-040-047-049-050-058-095>099-050200-
WEST-CENTRAL ILLINOIS

CITY           SKY/WX    TMP DP  RH WIND       PRES   REMARKS
QUINCY         MOCLDY    75  60  59 CALM      30.05S
$$

ILZ028>032-037-038-041>044-048-051>054-059>061-050200-
CENTRAL ILLINOIS

CITY           SKY/WX    TMP DP  RH WIND       PRES   REMARKS
DECATUR        CLOUDY    72  62  71 NE10      30.09R
PEORIA         LGT RAIN  72  63  73 E6        30.08S
SPRINGFIELD    CLOUDY    77  59  53 CALM      30.07R
TAYLORVILLE    NOT AVBL
$$

ILZ033-039-045-046-055>057-062-063-050200-
EAST-CENTRAL ILLINOIS

CITY           SKY/WX    TMP DP  RH WIND       PRES   REMARKS
CHAMPAIGN      MOCLDY    69  61  75 NE12      30.12R
MATTOON        MOCLDY    75  57  53 S5        30.10R
$$

ILZ079-100>102-050200-
SOUTHWEST ILLINOIS

CITY           SKY/WX    TMP DP  RH WIND       PRES   REMARKS
BELLEVILLE     CLEAR     74  58  56 SE3       30.06R
CAHOKIA*       CLEAR     79  55  43 S5        30.05R
SPARTA*        CLEAR     77  55  45 S6        30.09R
$$

ILZ064>066-069>071-074>076-080>082-084>086-088>090-092>094-050200-
SOUTH-CENTRAL ILLINOIS

CITY           SKY/WX    TMP DP  RH WIND       PRES   REMARKS
CARBONDALE     MOCLDY    76  55  48 S8        30.09S
MT. VERNON     PTCLDY   N/A N/A N/A S6        30.10S
SALEM*         CLEAR     79  53  40 S5        30.10R
$$

ILZ067-068-072-073-078-083-087-091-050200-
SOUTHEAST ILLINOIS

CITY           SKY/WX    TMP DP  RH WIND       PRES   REMARKS
LAWRENCEVILLE  PTCLDY    73  56  54 S7        30.12R
ROBINSON*      PTCLDY    74  55  50 S3        30.12R
$$

ABBREVIATIONS USED IN REMARKS
   TC - TEMPERATURE IN CELSIUS
  WCI - WIND CHILL INDEX
   HX - HEAT INDEX
  VSB - VISIBILITY
$$




USA.gov is the U.S. government's official web portal to all federal, state and local government web resources and services.